Regional Weather Roundup
Issued by NWS

Home | Current Version | Previous Version | Text Only | Print | Product List | Glossary On
Versions: 1 2 3 4 5 6 7 8 9 10 11 12 13 14 15 16 17 18 19 20 21 22 23 24 25 26 27 28 29 30 31 32 33 34 35 36 37 38 39 40 41 42 43 44 45 46 47 48 49 50
641
ASUS45 KPSR 081010
RWRAZ

ARIZONA HOURLY REGIONAL WEATHER ROUNDUP
NATIONAL WEATHER SERVICE PHOENIX AZ
300 AM MST MON FEB 08 2016

NOTE: FAIR INDICATES FEW OR NO CLOUDS BELOW 12,000 FEET WITH NO
SIGNIFICANT WEATHER AND/OR OBSTRUCTIONS TO VISIBILITY.

AZZ001>003-036-081100-
NORTHWEST ARIZONA

CITY           SKY/WX    TMP DP  RH WIND       PRES   REMARKS
BULLHEAD CITY  CLEAR     63  18  17 N35G41    30.29F
KINGMAN        CLEAR     41  22  46 NE10      30.39R
$$

AZZ004>008-015-016-018-081100-
NORTH CENTRAL ARIZONA

CITY           SKY/WX    TMP DP  RH WIND       PRES   REMARKS
GRAND CANYON   PTCLDY    39  15  37 NE10      30.47S WCI  32
WILLIAMS       PTCLDY    23  16  74 S3        30.48R
PRESCOTT       PTCLDY    32  20  61 CALM      30.38F
FLAGSTAFF      CLEAR     36  13  38 NE21G29   30.42F WCI  25
PAYSON         CLEAR     45  14  29 N5        30.37S
PAGE           PTCLDY    31  23  72 SE3       30.52R
$$

AZZ009>014-017-081100-
NORTHEAST ARIZONA

CITY           SKY/WX    TMP DP  RH WIND       PRES   REMARKS
WINSLOW        PTCLDY    28  17  63 CALM      30.48R
SAINT JOHNS    CLEAR     25  17  72 S3        30.44S
WINDOW ROCK    CLEAR     25   0  33 N5        30.46S WCI  19
SHOW LOW       CLEAR     25  16  68 CALM      30.46R
$$

AZZ023-081100-
GREATER PHOENIX AREA

CITY           SKY/WX    TMP DP  RH WIND       PRES   REMARKS
PHOENIX        PTCLDY    55  29  36 CALM      30.15F
BUCKEYE        CLEAR     50  25  37 N7        30.17S
LUKE AFB       CLEAR     62  22  21 NE8       30.16R
DEER VALLEY    CLEAR     57  20  23 N3        30.17S
SCOTTSDALE     CLEAR     66  16  14 NE12      30.17F
MESA-GATEWAY   CLEAR     45  32  61 SE5       30.16F
$$

AZZ027-028-081100-
SOUTHWEST MARICOPA COUNTY AND PINAL COUNTY

CITY           SKY/WX    TMP DP  RH WIND       PRES   REMARKS
CASA GRANDE    CLEAR     54  23  30 CALM      30.17R
GILA BEND      FAIR      46  27  46 CALM      30.13R HAZE
$$

AZZ503-504-507>509-081100-
SOUTHEAST ARIZONA

CITY           SKY/WX    TMP DP  RH WIND       PRES   REMARKS
TUCSON         CLEAR     43  22  43 CALM      30.19S
DAVIS-MONTHAN  CLEAR     44  21  40 NW3       30.17S
NOGALES        CLEAR     39  13  34 CALM      30.21S
SIERRA VISTA   PTCLDY    39  16  38 CALM      30.27S
DOUGLAS        PTCLDY    28  14  55 NW9       30.26S WCI  19
SAFFORD        CLEAR     35  20  54 N5        30.28S WCI  31
$$

AZZ020-021-025-026-031-081100-
SOUTHWEST ARIZONA

CITY           SKY/WX    TMP DP  RH WIND       PRES   REMARKS
YUMA           PTCLDY    67  22  18 N15G22    30.13S
$$

CAZ031-033-041-043-047-048-061-081100-
SOUTHERN CALIFORNIA

CITY           SKY/WX    TMP DP  RH WIND       PRES   REMARKS
DOWNTOWN L.A.  CLEAR     56  37  49 CALM      30.12S
L.A. AIRPORT   CLEAR     58  32  37 CALM      30.12S
SAN DIEGO      CLEAR     57  32  38 CALM      30.11S
BURBANK        CLEAR     74  18  12 N9        30.13S
ONTARIO        CLEAR     73  17  12 NE15G30   30.14F
RIVERSIDE      CLEAR     71  20  14 NE10G18   30.18F
PALM SPRINGS   CLEAR     70  23  17 NW9       30.24S
EL CENTRO NAS  CLEAR     50  23  34 W10       30.18S
IMPERIAL       CLEAR     49  26  41 W7        30.15S
BLYTHE         CLEAR     61  21  21 N12       30.19S
NEEDLES        CLEAR     62  18  18 N22G28    30.28R
$$

NVZ020-UTZ003-081100-
SOUTHERN NEVADA-UTAH

CITY           SKY/WX    TMP DP  RH WIND       PRES   REMARKS
LAS VEGAS      CLEAR     54  22  28 NE10      30.40R
SALT LAKE CITY PTCLDY    26  22  84 SE6       30.66S WCI  19
$$

NMZ009-TXZ055-081100-
NEW MEXICO-WEST TEXAS

CITY           SKY/WX    TMP DP  RH WIND       PRES   REMARKS
ALBUQUERQUE    CLOUDY    37  19  48 N8        30.41S WCI  31
EL PASO        MOCLDY    40  15  36 NE8       30.30S WCI  34
$$


........................KEY........................
SKY/WX - SKY CONDITION/WEATHER
TMP    - TEMPERATURE IN FAHRENHEIT
DP     - DEW POINT IN FAHRENHEIT
RH     - RELATIVE HUMIDITY IN PERCENT
WIND   - DIRECTION AND SPEED IN MILES PER HOUR (MPH)
VRB    - VARIABLE WIND DIRECTION
PRES   - MEAN SEA LEVEL PRESSURE IN INCHES OF MERCURY
         F - FALLING PRESSURE   R - RISING PRESSURE
         S - STEADY PRESSURE
VSB    - VISIBILITY IN MILES
HX     - HEAT INDEX IN FAHRENHEIT
WCI    - WIND CHILL INDEX IN FAHRENHEIT
TC     - TEMPERATURE IN CELSIUS WHICH IS ALSO KNOWN AS
         TEMPERATURE IN CENTIGRADE
AFB    - AIR FORCE BASE
         LUKE AFB IS LUKE AIR FORCE BASE
         DAVIS-MONTHAN IS DAVIS-MONTHAN AIR FORCE BASE
NAS    - NAVAL AIR STATION
         EL CENTRO NAS IS EL CENTRO NAVAL AIR STATION
N/A    - NOT AVAILABLE





USA.gov is the U.S. government's official web portal to all federal, state and local government web resources and services.